Wind_Speed
9 9 9 9 8 8 9 9 10 11 12 13 14 14 15 15 14 14 14 13 13 13 13 13 13 14 14 14 14 13 12 11 11 9 9 10 10 11 12 12 11 11 10 10 10 10 9 7 6 6 7 7 7 7 7 8 9 9 9 9 11 12 11 11 10 10 11 10 11 11 12 13 14 16 17 18 19 19 20 20 20 19 18 18 17 17 18 18
11 10 10 10 9 10 10 10 11 12 12 13 14 15 15 15 15 15 15 14 13 13 12 12 12 12 13 13 13 13 12 12 10 9 10 10 11 11 12 12 12 12 12 11 11 11 11 10 8 6 6 7 7 7 7 8 8 9 9 10 11 11 11 11 10 10 11 12 12 13 14 15 16 18 19 20 20 21 22 21 20 19 18 17 17 17 18 19
12 12 12 11 11 11 11 11 12 12 13 14 14 15 15 15 15 15 15 15 14 13 13 12 12 12 12 12 12 12 12 11 10 10 10 11 11 11 12 12 12 12 12 11 12 11 11 11 10 8 7 7 7 7 7 8 9 9 10 11 11 11 11 11 11 11 12 13 13 14 16 17 18 20 21 21 22 23 23 21 19 19 18 17 17 18 19 21
13 13 13 13 13 12 13 13 13 13 14 14 14 14 15 15 15 15 15 15 14 14 13 13 12 12 12 12 12 11 12 12 9 10 11 11 11 11 12 12 12 12 12 12 11 11 12 12 11 10 9 8 6 6 7 8 9 10 11 11 11 11 11 12 11 12 13 14 14 15 17 18 19 21 22 22 23 24 22 20 19 19 19 18 18 20 21 23
14 14 14 14 14 14 14 14 14 14 14 15 14 14 14 14 15 15 15 15 14 14 13 13 12 12 12 12 12 11 12 11 10 11 11 11 11 11 12 12 12 12 12 12 11 11 11 12 12 11 10 9 7 7 7 8 9 10 11 12 13 12 13 12 12 12 13 15 15 16 18 18 20 22 23 24 24 23 21 20 20 20 19 19 20 22 23 24
14 14 14 14 15 15 15 15 15 15 15 15 15 15 15 15 14 14 15 14 14 14 13 13 12 12 12 12 13 12 12 12 11 11 11 11 12 12 12 12 12 12 12 12 11 11 11 12 12 12 11 9 8 8 8 8 8 10 10 11 11 11 12 12 13 14 15 16 17 18 19 21 22 24 24 24 23 22 21 21 21 21 21 21 23 25 25 25
15 15 15 15 15 15 15 15 15 16 16 15 15 16 16 16 15 14 14 14 14 13 13 13 13 12 12 12 13 13 13 12 12 12 12 12 12 13 13 13 13 12 12 12 11 11 11 11 12 12 11 10 10 10 9 8 8 9 8 9 10 11 13 13 14 15 16 18 19 20 22 23 24 24 25 25 23 22 22 22 23 23 23 24 26 27 26 26
16 16 15 15 15 15 16 16 16 16 15 16 16 16 17 16 15 14 14 14 14 13 13 13 13 12 12 12 12 13 13 13 13 13 12 13 13 13 13 13 13 13 13 13 12 12 11 11 11 11 11 11 11 11 10 10 9 8 8 9 11 12 13 14 15 16 17 18 20 21 22 23 24 25 26 24 23 22 22 22 23 24 25 27 29 28 27 27
17 17 16 16 16 16 16 16 16 15 15 16 16 16 16 16 15 14 14 14 13 13 12 12 12 11 11 12 12 12 12 13 13 13 13 13 14 14 14 14 14 14 14 14 13 13 13 13 12 12 12 11 11 12 12 11 9 8 9 11 12 13 14 15 16 16 17 18 19 21 23 23 23 25 25 22 22 23 23 24 25 26 28 29 30 29 29 28
18 18 17 17 17 16 16 16 16 15 15 15 16 16 16 15 15 13 13 13 13 13 12 11 11 11 11 11 11 12 12 13 13 13 13 14 15 16 16 16 15 15 15 15 14 14 14 14 13 13 13 12 12 13 13 11 10 11 11 12 13 14 14 15 15 15 16 17 18 20 23 23 23 26 22 20 22 24 25 26 28 29 31 31 31 30 29 28
18 18 18 18 18 17 17 16 16 15 15 16 16 16 16 16 15 14 13 13 13 13 12 12 11 11 11 11 12 12 12 13 13 13 14 14 15 16 17 17 17 17 17 16 16 15 15 15 15 15 13 13 14 14 13 11 12 14 13 13 14 14 14 14 14 15 16 17 18 20 24 24 24 24 20 19 23 25 27 29 30 32 32 33 32 31 30 29
20 20 19 19 19 18 18 17 17 16 16 16 16 16 16 16 15 14 14 13 13 13 13 12 12 12 11 11 12 13 13 13 13 13 14 14 15 16 17 19 19 19 18 18 18 17 16 16 16 15 14 15 15 14 13 13 15 15 15 15 14 14 15 14 13 13 15 16 16 18 25 26 22 21 21 22 25 26 29 30 31 33 33 33 33 33 32 31
22 21 21 20 20 20 19 19 18 17 17 17 17 17 16 16 15 15 14 14 14 14 14 13 14 14 14 13 12 14 15 14 14 13 13 13 14 16 18 19 21 21 20 20 19 18 18 18 17 17 16 15 15 14 14 15 16 16 17 17 15 14 14 13 13 14 14 15 15 16 24 26 20 20 22 24 26 27 29 31 32 33 33 34 35 35 34 33
23 23 22 22 21 21 21 20 20 19 18 18 17 17 17 16 16 16 16 15 15 15 15 14 15 15 15 15 14 15 15 15 14 13 12 14 16 17 18 20 21 22 22 22 20 20 20 19 19 18 17 17 17 16 16 16 17 17 18 17 16 17 15 14 15 16 16 16 16 16 25 28 20 20 24 25 27 29 31 33 34 34 35 35 35 35 34 33
25 25 24 23 23 22 22 22 22 21 20 20 19 19 19 17 17 17 17 17 16 16 16 16 17 17 17 17 16 16 15 15 14 13 14 17 19 19 19 20 21 23 23 23 23 22 21 20 20 19 18 18 18 18 18 18 18 18 17 16 18 19 19 18 16 17 16 17 18 17 24 29 23 22 25 27 30 32 34 36 36 37 37 36 36 36 34 33
26 26 25 25 24 24 23 23 23 23 22 22 21 21 21 20 18 18 18 18 18 18 18 18 17 18 19 18 17 17 16 15 15 16 18 19 20 21 21 22 22 23 24 24 24 23 23 21 20 20 19 19 19 19 20 20 19 17 17 18 20 22 22 21 18 17 17 18 22 21 25 31 27 25 27 28 31 33 36 38 38 39 39 39 38 37 36 35
26 27 27 26 26 25 25 25 25 24 24 24 24 23 22 22 21 20 20 19 19 19 19 19 19 21 21 19 17 16 16 17 18 20 20 20 22 24 24 24 24 25 25 25 26 25 24 22 21 20 20 19 20 20 20 20 19 18 19 21 22 23 24 24 21 19 19 21 25 26 30 33 29 27 29 30 32 35 37 39 39 40 40 41 40 39 38 36
27 27 27 27 27 27 26 26 26 26 25 26 26 25 24 24 23 23 22 21 21 20 21 20 20 21 20 18 18 18 19 20 21 21 21 22 24 25 26 26 26 26 26 27 27 26 25 24 23 21 21 20 20 20 19 19 20 21 22 23 24 26 26 27 24 22 22 23 27 30 34 34 31 29 31 33 34 37 39 39 39 39 39 40 40 39 37 36
28 28 28 28 28 28 28 28 28 28 27 27 27 28 27 27 26 25 24 23 22 21 21 20 20 22 21 20 21 21 22 23 23 24 24 24 25 26 27 28 28 27 28 29 29 28 27 26 25 24 23 21 22 22 20 20 23 24 24 24 26 27 29 29 26 24 24 26 29 32 34 35 33 32 32 34 36 37 39 38 35 34 35 36 36 36 35 33
29 29 29 29 29 29 29 29 29 29 29 28 28 29 28 28 28 27 26 26 25 24 22 22 23 25 24 24 24 23 24 25 26 25 25 26 26 28 29 30 29 28 29 29 29 28 27 28 28 26 23 23 24 22 21 23 24 25 25 25 27 29 31 29 27 28 27 29 32 32 34 36 37 36 34 34 37 37 35 31 29 29 30 31 32 32 31 29
30 30 30 30 30 30 29 30 30 30 30 30 30 30 30 30 29 29 29 28 27 27 26 25 26 27 26 26 25 25 27 27 28 27 27 28 28 29 30 30 30 29 28 27 28 27 27 30 29 24 24 26 25 23 24 25 25 26 26 26 28 31 32 29 28 29 28 30 34 34 37 42 41 39 36 36 36 31 27 26 26 27 27 28 28 27 27 27
32 31 31 31 31 30 30 30 30 30 30 30 30 31 30 31 31 31 32 32 31 29 29 28 28 28 28 27 26 27 28 30 30 29 29 29 29 29 29 28 28 26 25 25 26 26 28 31 28 25 26 26 24 25 27 26 26 27 26 27 30 31 33 31 28 29 28 31 36 38 42 48 45 42 40 34 28 25 25 26 26 28 29 28 26 25 25 26
33 33 32 31 31 31 31 30 30 30 30 30 31 31 30 31 32 32 34 36 36 34 32 31 31 30 28 28 28 29 31 32 32 31 30 30 29 27 26 25 24 23 23 25 25 27 28 28 25 23 25 25 25 28 29 27 26 27 28 30 32 32 31 30 30 29 28 32 37 39 48 56 49 43 36 24 22 27 26 25 28 30 30 28 26 24 24 24
35 34 33 32 31 31 31 30 30 30 30 31 31 31 31 31 31 32 34 37 40 39 36 34 34 32 30 29 30 32 33 33 33 32 30 28 25 23 23 22 22 22 23 24 25 27 28 28 28 27 27 28 28 30 30 27 27 28 30 32 33 31 28 30 30 29 31 32 34 38 48 52 35 22 25 27 31 30 22 24 31 29 27 26 24 21 19 21
36 35 34 33 32 32 32 31 31 30 30 30 30 30 31 31 31 32 33 36 40 41 39 37 36 34 32 31 32 32 33 33 32 29 26 24 21 21 22 21 22 23 22 23 25 28 28 28 31 31 30 30 30 30 29 27 29 30 31 32 32 29 28 29 28 30 31 27 27 28 28 26 12 7 25 39 36 26 19 24 27 22 22 22 20 19 19 22
36 36 35 34 33 33 33 33 32 31 31 30 30 30 30 31 31 32 33 34 37 39 39 36 33 31 31 31 30 29 29 28 26 24 21 20 20 22 22 22 23 23 22 23 24 27 28 29 30 31 31 30 30 31 30 29 30 30 31 32 29 29 29 28 29 29 26 21 25 24 18 22 25 28 38 40 30 25 23 22 20 19 21 21 20 21 23 25
38 37 36 36 35 34 35 35 33 32 32 31 31 31 31 31 31 31 29 24 24 28 29 28 27 27 26 24 24 24 22 20 19 19 19 20 22 23 23 24 24 24 23 23 24 26 28 28 28 30 30 30 31 33 31 30 29 30 32 30 28 31 30 30 31 28 28 31 33 32 27 29 37 38 34 29 30 31 25 19 18 22 24 23 23 24 26 26
40 39 38 38 38 37 38 37 35 34 33 33 33 32 32 32 32 31 22 10 8 12 13 15 18 19 19 18 19 21 21 21 21 21 22 23 25 25 25 26 25 25 25 26 28 29 29 29 29 30 31 33 35 35 33 31 30 32 32 30 29 31 29 31 31 28 33 33 29 34 27 19 30 36 25 26 33 31 26 21 20 25 27 24 23 24 26 27
41 40 39 38 38 38 39 38 38 37 36 36 35 34 34 33 32 27 16 7 6 8 10 15 19 19 20 20 21 23 24 24 25 25 26 26 26 27 27 26 25 27 28 31 34 33 32 33 33 33 35 37 37 36 35 33 32 32 31 29 29 28 29 31 29 30 31 23 25 36 26 14 23 31 22 24 30 30 31 26 21 25 24 22 24 26 26 26
41 40 39 39 38 38 38 39 39 38 38 38 37 37 36 33 30 20 11 9 10 11 13 16 20 24 24 25 24 25 26 26 27 28 27 27 28 28 28 27 27 28 29 32 35 35 36 37 36 37 38 38 38 38 37 33 32 33 31 29 28 28 30 30 28 28 20 14 25 33 25 17 13 17 19 22 29 36 32 23 24 27 22 24 30 27 26 27
41 41 41 41 40 38 38 37 37 37 38 38 37 36 34 32 28 15 8 15 19 19 21 21 24 27 27 27 26 26 27 27 27 26 27 28 30 32 31 30 29 29 31 35 36 37 37 38 39 39 38 38 39 38 35 33 32 32 29 27 24 19 19 19 17 14 6 8 19 19 14 16 18 20 27 31 38 36 21 22 34 30 21 28 33 28 27 27
41 41 41 41 40 40 39 37 35 35 36 36 34 34 32 28 26 23 19 18 15 13 17 20 22 23 22 25 27 26 26 27 26 26 28 31 33 36 34 32 30 27 27 33 35 35 39 40 39 38 38 39 40 37 36 34 34 34 31 26 17 6 7 7 3 3 6 11 18 15 8 15 33 44 46 42 37 22 19 34 38 26 24 33 34 30 30 28
42 42 41 41 40 40 40 38 36 34 34 33 32 32 31 22 20 29 32 26 17 12 14 15 16 18 20 25 27 25 26 28 28 28 30 33 36 37 35 34 33 29 28 30 27 26 31 36 36 35 36 37 37 36 34 33 30 29 30 26 15 3 3 4 3 3 9 14 18 15 11 17 35 48 43 30 21 21 36 43 28 23 30 36 36 33 31 30
43 43 43 42 42 41 41 39 38 36 33 32 32 30 31 26 22 29 36 36 32 28 27 24 24 25 26 29 29 28 28 29 30 30 31 34 37 38 38 37 36 35 35 33 28 24 23 27 31 31 30 30 30 27 26 28 27 23 23 23 20 13 8 6 4 4 7 14 14 8 8 16 26 36 32 23 28 39 44 32 21 28 36 38 40 36 33 34
42 42 43 43 43 42 42 40 39 37 33 33 33 32 38 39 33 36 41 41 38 37 36 35 34 33 33 33 33 32 31 30 32 32 32 36 38 39 40 38 36 36 36 31 28 27 25 30 35 31 29 31 29 26 24 25 26 23 22 23 24 25 21 13 12 15 11 13 12 11 18 37 44 50 50 42 43 43 33 25 27 35 41 43 43 38 36 38
41 41 42 43 42 40 41 41 40 38 35 34 34 41 53 51 44 43 42 38 37 37 36 35 35 35 35 37 37 36 33 32 34 33 33 37 40 43 44 40 37 37 36 35 31 24 22 28 32 27 26 27 24 25 26 25 23 22 24 27 27 26 24 18 15 18 10 7 15 15 24 50 54 48 48 38 36 38 32 31 35 40 46 47 43 40 40 41
41 41 42 43 41 37 37 40 40 38 37 36 40 51 60 57 52 50 45 41 39 35 32 33 33 33 33 35 36 35 32 33 36 36 37 37 37 42 44 40 40 38 36 37 36 32 29 33 38 35 31 30 28 26 27 28 27 26 26 27 25 19 19 18 9 6 3 2 15 20 26 46 42 32 39 37 37 44 37 34 42 48 51 48 44 43 42 42
42 43 44 43 40 35 35 38 40 40 37 38 48 58 60 56 56 53 49 47 44 39 38 39 38 36 35 36 35 32 29 33 36 36 38 37 36 40 38 34 36 35 32 33 35 36 34 32 39 42 37 35 32 27 27 30 31 34 32 27 22 14 13 18 10 3 4 2 8 21 29 43 43 36 45 47 45 47 39 40 52 54 51 48 47 46 45 44
43 45 46 43 38 35 35 37 39 38 38 44 54 59 60 60 59 55 52 50 47 45 46 47 45 41 40 40 36 33 32 35 38 37 37 36 36 40 38 33 33 32 29 30 35 38 37 29 29 39 41 36 30 29 33 36 36 38 36 29 27 21 15 18 15 8 5 4 7 15 17 37 49 40 44 51 50 51 49 52 58 54 51 51 50 50 49 48
45 47 48 43 37 35 35 36 39 40 44 52 58 60 61 61 59 57 55 52 50 49 49 50 48 44 45 45 41 39 37 37 39 38 38 39 39 40 39 36 36 34 30 28 31 36 38 32 30 38 42 35 34 39 43 42 39 38 37 33 33 31 23 18 20 22 14 4 4 3 6 41 61 47 49 61 59 59 59 59 59 54 53 54 54 55 54 54
46 48 50 45 39 36 35 37 42 46 51 57 59 60 61 60 59 59 56 53 51 50 50 50 49 48 49 48 46 45 40 38 40 39 41 45 44 42 42 39 37 34 31 29 30 34 36 35 36 41 43 43 47 50 44 38 36 35 35 35 35 36 29 15 13 27 29 17 12 4 5 48 76 63 63 70 64 64 65 60 58 57 56 59 59 60 59 59
48 51 51 46 41 38 37 40 44 47 53 58 58 59 59 59 60 59 57 55 52 51 51 51 52 53 52 52 50 47 43 42 43 43 44 47 48 47 46 43 38 34 30 28 29 32 33 33 36 42 47 49 49 45 37 31 30 31 33 36 35 35 36 26 15 22 29 27 25 8 3 46 83 76 69 71 65 65 64 59 60 62 62 64 63 63 63 61
52 52 50 47 46 43 39 41 45 48 54 57 56 56 57 58 59 58 58 56 54 53 52 53 55 55 54 53 51 49 47 45 47 49 48 49 53 51 48 46 44 38 33 30 29 29 30 33 36 39 45 47 46 43 38 31 27 29 37 41 39 40 44 43 35 28 22 22 21 5 3 47 83 77 68 68 64 63 63 62 64 66 65 66 65 65 64 61
53 52 52 51 51 48 47 50 54 55 57 57 56 57 57 57 59 60 60 58 55 55 55 55 56 54 53 52 51 52 50 45 46 49 48 50 53 52 49 48 46 43 40 38 36 32 30 33 34 27 24 27 30 27 26 31 33 37 45 45 45 48 47 45 44 32 23 28 24 9 12 55 79 71 65 66 64 65 67 66 67 68 68 67 66 65 64 62
52 52 53 55 55 55 56 59 59 59 59 59 59 58 58 59 60 60 61 60 59 58 55 52 52 52 52 51 51 53 52 48 46 47 49 53 54 52 50 47 45 46 45 43 42 39 36 37 38 29 15 13 18 17 20 29 33 39 46 45 46 49 46 47 46 29 21 32 32 24 37 65 75 71 69 69 69 70 70 68 69 70 69 68 67 65 64 63
54 54 53 54 54 55 59 60 59 59 60 59 58 59 60 61 63 62 61 61 61 59 55 53 53 52 51 50 50 52 53 53 50 51 55 56 53 49 48 46 45 43 42 42 42 42 41 43 46 46 39 36 41 42 37 33 30 34 41 41 43 44 43 50 48 34 33 34 35 48 61 63 69 77 75 71 70 70 71 71 71 71 70 69 67 65 64 62
58 58 59 56 49 47 55 60 60 61 62 60 59 61 63 64 63 62 62 62 61 58 55 56 56 54 53 54 53 54 55 54 52 56 60 59 55 52 48 45 42 40 40 41 41 42 44 46 51 55 54 55 58 57 51 43 41 45 45 45 48 44 41 48 49 49 51 34 30 56 66 58 69 82 76 72 72 71 72 73 72 72 72 69 66 64 63 59
62 63 64 61 53 50 54 59 60 61 61 61 62 62 63 64 64 64 63 61 59 56 52 53 57 58 58 57 53 51 52 52 54 59 61 58 57 56 52 49 46 43 42 40 41 44 46 50 54 54 54 57 58 58 55 52 52 53 51 54 56 48 43 48 53 63 61 42 42 65 67 62 74 81 75 75 75 72 73 74 72 72 70 67 64 61 57 53
66 67 66 63 60 60 60 60 59 56 55 56 59 60 61 63 65 66 63 59 58 58 55 56 61 62 58 55 52 51 51 52 56 60 59 57 57 56 54 51 48 46 44 43 45 45 46 50 52 50 51 55 57 57 56 54 55 57 57 61 60 52 50 55 62 67 61 53 62 73 69 70 80 80 78 77 75 74 74 71 69 68 65 62 59 55 50 46
66 69 69 67 66 64 62 61 59 58 56 54 55 57 58 60 61 61 62 61 60 60 59 61 64 62 55 50 50 53 56 59 60 60 57 52 49 48 47 46 45 44 46 49 48 45 47 50 49 47 48 53 58 58 53 52 53 53 58 65 63 55 57 66 70 65 56 58 69 69 66 76 83 80 77 75 73 72 69 66 64 60 57 55 52 48 44 41
64 69 72 70 69 67 65 64 63 62 60 57 58 60 61 61 61 60 60 60 60 61 61 61 62 59 52 48 50 57 63 62 59 57 55 52 49 47 46 46 46 45 46 49 49 48 49 49 49 46 40 47 58 52 44 46 45 44 56 69 66 61 63 69 70 63 58 61 64 60 64 78 83 77 73 72 70 68 65 61 56 51 50 49 46 43 40 39
61 68 73 71 68 67 66 65 64 62 62 63 64 64 63 61 59 57 58 59 59 59 59 58 59 57 55 54 56 60 62 59 54 51 50 52 53 54 52 51 50 47 46 47 48 49 49 48 50 44 34 43 53 44 35 32 23 31 58 71 67 65 67 67 67 67 65 63 59 60 71 82 80 72 70 70 67 63 59 54 51 51 48 44 42 41 38 36
Wind_Direction
264 265 268 274 280 287 294 301 306 309 312 314 318 321 325 327 330 334 337 342 348 353 356 358 359 3 6 7 8 8 7 5 6 2 360 3 4 2 1 2 0 357 356 1 3 4 7 0 342 337 334 328 322 320 314 305 301 299 291 284 283 282 278 276 273 269 270 271 270 271 271 274 279 283 287 290 295 300 301 301 302 303 304 301 298 295 291 288
268 270 273 277 282 287 293 299 303 307 309 311 313 315 319 322 323 324 327 330 335 340 344 346 348 351 355 357 358 358 358 358 357 354 356 356 356 357 357 358 359 357 357 5 9 8 15 17 5 350 338 332 327 321 313 304 300 296 292 291 290 288 284 280 279 273 269 270 272 274 275 278 281 283 286 289 294 298 298 300 303 302 301 298 296 294 291 290
270 273 276 278 283 287 292 298 303 307 310 311 312 312 314 317 319 319 319 321 323 327 330 334 337 338 341 345 346 347 348 347 349 351 351 349 348 350 351 353 355 354 354 2 7 6 13 15 10 1 347 342 336 321 311 302 298 295 293 292 289 288 289 286 282 276 272 272 272 274 276 279 282 284 287 291 293 294 298 302 301 298 298 298 297 296 294 293
269 272 275 278 282 286 291 297 302 306 309 312 313 312 311 314 316 316 315 315 315 318 320 322 324 326 329 331 334 336 335 336 341 343 343 342 341 342 344 345 346 349 349 356 1 2 10 12 8 3 353 348 340 323 311 300 298 295 294 290 285 286 287 286 283 276 273 273 273 275 278 282 285 286 289 292 292 293 299 300 295 294 295 297 298 299 298 297
266 269 273 277 280 285 290 295 300 304 308 311 312 312 311 311 312 314 312 311 311 312 313 315 316 318 319 320 323 323 324 329 330 329 332 333 333 333 336 336 337 341 342 348 353 356 6 8 5 3 356 351 343 329 316 306 298 294 292 290 287 288 288 287 284 279 277 277 278 281 283 285 285 286 289 290 289 292 296 294 292 292 292 294 298 300 300 299
264 267 270 274 278 283 287 293 297 302 305 308 310 311 311 310 309 310 309 308 308 309 310 310 311 312 312 313 314 313 315 317 317 317 318 321 324 325 326 328 330 333 335 340 342 352 3 4 3 2 358 353 343 334 323 312 300 294 290 289 290 291 291 291 288 285 284 284 285 285 285 285 285 288 288 287 288 292 293 292 291 290 291 294 298 301 300 299
263 265 267 271 275 280 285 290 294 298 303 306 307 309 311 311 308 308 307 305 305 305 306 306 307 307 307 307 307 307 306 305 306 306 306 308 313 316 318 321 324 326 327 332 336 343 351 355 358 357 356 354 346 341 331 315 304 297 287 287 291 289 290 290 289 288 285 285 286 285 285 286 287 288 286 286 290 291 292 291 290 291 292 294 299 300 298 299
262 264 265 268 271 275 281 285 290 295 299 302 304 307 309 309 307 306 305 303 303 303 304 303 303 304 305 306 306 304 302 301 301 299 297 298 301 306 310 312 317 320 321 324 329 332 337 343 346 347 349 347 343 342 337 324 313 301 291 292 295 291 290 289 289 288 285 285 285 285 286 286 287 287 286 289 292 292 293 291 290 291 290 293 297 297 296 297
260 262 264 265 267 270 275 280 286 290 294 298 301 303 306 307 306 304 303 302 302 302 302 302 301 302 304 306 308 307 303 304 302 296 292 293 294 295 301 305 308 313 315 317 321 324 327 331 333 338 340 337 335 337 335 328 318 311 304 303 302 298 295 293 291 288 287 287 286 287 286 285 286 286 289 295 297 296 294 291 290 289 290 292 294 293 294 295
260 261 263 264 266 268 271 275 280 285 290 294 296 299 302 304 303 302 301 299 299 300 300 300 299 301 303 307 309 309 308 308 305 299 293 290 291 290 293 298 301 305 307 309 314 318 321 325 327 331 332 330 329 329 329 324 316 316 313 311 309 303 300 298 294 291 290 289 289 289 286 286 285 284 296 306 298 295 292 290 290 290 290 291 291 291 292 293
262 262 263 264 265 266 268 270 274 280 286 291 294 295 298 300 300 300 298 297 297 297 297 297 297 298 300 306 308 308 310 309 305 302 296 291 290 289 288 291 295 297 298 302 306 311 317 320 323 326 329 328 324 323 322 317 315 316 313 312 310 306 306 303 299 295 292 292 292 291 287 284 281 287 306 306 293 291 291 290 291 291 292 292 291 291 292 293
265 264 265 265 266 266 267 268 270 275 281 288 291 292 294 295 296 296 295 295 295 294 295 295 296 296 299 303 305 306 308 307 304 302 297 293 291 289 287 287 289 290 292 294 298 304 310 316 321 323 324 323 321 319 317 313 312 310 308 308 304 303 306 304 301 296 294 293 291 291 288 283 283 297 308 299 293 294 292 293 293 293 293 292 292 292 293 293
265 266 266 266 266 266 266 267 268 271 276 283 289 290 290 291 292 292 291 292 292 292 292 293 294 295 296 300 302 304 305 303 302 300 298 296 294 293 290 286 285 287 287 288 291 296 301 309 317 320 320 320 319 315 311 310 309 306 307 306 299 296 298 301 302 297 294 291 287 286 286 288 296 303 301 296 296 296 293 294 292 291 291 290 291 291 292 291
265 265 266 267 267 267 266 267 267 268 272 278 285 288 288 288 290 288 288 288 288 288 289 290 292 292 294 297 299 300 300 299 299 299 298 300 298 295 292 288 285 284 284 284 286 289 294 300 308 315 318 316 317 314 310 307 306 306 304 303 300 298 296 299 302 300 297 290 285 278 279 291 306 302 299 301 300 298 297 295 293 291 290 289 289 289 289 289
265 265 266 267 267 267 267 267 267 268 270 275 281 287 287 286 289 289 287 287 287 287 288 288 289 290 291 294 297 297 296 296 298 298 300 302 300 296 293 290 286 283 282 281 282 284 287 291 299 308 313 315 316 313 310 306 304 304 302 301 303 301 298 299 299 298 297 291 286 275 274 290 304 303 304 304 302 301 299 296 294 293 292 290 290 288 288 287
266 267 268 268 268 268 268 268 268 268 270 273 278 284 287 285 287 288 287 287 287 287 287 287 287 288 290 292 293 293 294 295 298 300 301 301 298 296 293 290 286 282 279 278 279 280 282 285 291 298 306 312 313 313 312 306 302 302 300 302 304 303 302 300 299 296 296 292 288 280 276 288 300 304 304 302 301 301 298 296 296 294 293 291 290 288 287 286
268 268 269 269 269 270 270 269 269 268 269 272 274 280 285 286 286 288 287 286 286 286 285 286 287 286 287 289 290 292 293 295 298 298 298 298 297 295 292 289 285 281 278 276 275 277 279 280 283 289 298 305 310 314 310 302 301 301 300 301 303 304 302 300 300 298 295 291 288 284 280 288 300 304 301 301 301 300 299 297 296 294 292 290 290 289 289 289
268 269 269 269 269 269 270 269 270 269 269 271 273 275 279 283 284 284 285 284 284 284 283 283 285 285 286 286 289 292 294 294 295 295 295 295 294 292 290 287 282 279 276 274 274 275 276 277 277 281 289 298 306 309 304 299 300 299 298 298 301 303 300 299 300 299 293 286 284 281 280 288 297 298 298 300 300 300 300 298 296 295 293 292 291 291 291 290
268 269 270 270 270 269 268 269 269 269 269 270 272 274 277 279 281 282 283 283 283 282 282 283 281 281 283 285 289 291 291 291 292 292 293 292 291 290 288 284 281 278 273 271 271 272 272 273 272 274 283 292 300 303 303 302 300 298 296 295 299 302 301 302 304 300 292 285 281 280 281 286 290 293 297 298 298 301 302 300 299 297 293 292 291 290 290 288
267 269 270 271 272 271 270 269 269 270 270 270 271 273 276 278 280 281 281 281 281 279 279 281 280 279 282 284 287 289 289 289 289 291 291 290 290 288 285 283 280 276 272 270 268 269 269 268 268 272 279 287 294 298 302 304 302 298 294 292 297 299 299 305 305 298 293 289 286 286 286 285 288 294 297 298 298 302 304 303 300 295 290 288 287 286 286 286
265 267 270 271 272 273 273 272 271 271 272 272 272 273 276 278 279 280 279 278 278 279 278 278 279 279 281 283 285 286 287 287 287 289 289 288 287 284 282 281 278 275 273 269 266 267 266 266 269 273 275 282 289 292 298 303 302 297 292 291 294 296 299 304 302 295 294 291 289 292 289 287 290 295 297 298 299 303 306 306 303 297 291 288 286 286 287 287
264 266 268 270 272 274 275 275 274 274 274 274 274 275 277 278 280 281 281 278 274 275 278 277 277 278 280 282 283 283 283 284 286 287 287 286 284 281 279 277 275 274 271 265 262 262 263 268 272 272 271 277 284 290 296 299 299 296 292 290 291 296 301 302 298 294 293 290 292 295 291 289 292 294 298 298 297 304 309 309 307 300 294 293 295 295 290 286
264 266 267 269 271 273 274 275 276 276 275 275 275 277 278 279 280 282 284 283 276 272 274 276 276 277 279 281 282 281 281 282 283 284 285 284 281 277 274 274 273 271 267 262 260 258 261 269 272 267 267 274 282 289 293 294 294 293 291 289 290 297 300 297 296 293 289 291 294 296 293 293 294 295 298 298 298 307 309 307 308 304 300 300 299 296 290 286
264 265 266 267 269 270 271 273 274 275 275 275 276 278 280 280 282 283 285 286 280 274 272 275 276 277 279 279 278 277 279 280 281 283 284 281 277 272 271 272 269 268 267 264 260 258 261 267 267 266 268 274 281 286 288 290 291 291 291 289 289 294 295 292 293 290 289 290 291 297 299 297 298 297 299 304 306 308 306 306 311 310 307 303 296 294 295 292
263 264 265 266 266 267 269 270 271 272 274 275 275 277 279 281 283 285 287 288 284 278 274 275 276 277 277 276 275 275 276 277 278 279 277 273 270 270 271 270 268 269 268 263 259 259 263 265 265 267 269 273 278 282 284 287 289 291 291 288 288 292 290 290 291 291 294 292 289 302 307 301 297 261 291 305 308 305 307 309 313 313 306 299 293 296 301 298
262 263 264 265 265 266 267 268 269 271 272 273 274 276 277 280 283 286 288 289 285 281 279 279 276 274 273 272 273 274 273 273 274 271 269 267 267 270 271 268 268 268 266 262 257 258 266 266 264 266 268 271 274 276 282 287 289 289 287 285 286 289 290 290 289 290 294 288 286 295 292 285 283 275 288 304 305 303 312 313 314 319 310 298 295 299 301 301
260 261 262 263 264 265 266 267 268 269 271 272 274 275 276 279 282 285 290 290 284 283 282 277 272 271 269 268 268 266 265 269 271 268 268 269 270 270 269 268 270 268 265 259 251 259 270 269 266 267 266 268 269 274 285 289 286 283 284 285 284 286 289 288 288 289 288 288 288 288 281 277 281 282 291 302 300 303 314 313 312 322 318 306 301 300 299 300
260 260 261 262 263 263 264 266 266 267 269 271 272 274 275 277 280 283 285 284 287 292 282 267 266 267 264 260 259 258 262 269 270 270 271 270 269 268 266 267 268 265 264 257 253 264 271 267 266 266 264 267 270 278 287 286 281 281 282 280 279 283 285 285 286 286 290 294 290 284 279 267 277 282 287 298 296 302 316 312 309 322 322 313 307 303 299 299
260 261 261 261 262 262 263 263 264 265 267 268 270 272 273 275 278 276 269 253 272 279 262 258 260 263 263 261 260 261 265 268 268 269 271 268 267 266 263 262 260 258 258 256 258 264 265 264 264 264 264 268 273 280 284 284 281 279 278 276 277 280 281 283 285 286 292 291 279 280 273 252 277 279 274 286 291 302 315 310 308 321 321 319 317 308 302 300
260 260 261 261 262 262 263 262 263 263 264 265 267 269 270 272 270 261 241 239 259 264 254 254 258 263 267 264 263 265 266 265 265 265 266 263 263 263 259 257 254 255 256 257 260 263 262 263 262 262 265 269 273 278 281 281 278 274 273 272 275 278 281 282 281 284 292 279 273 281 272 249 267 280 271 277 291 305 311 305 311 318 314 322 326 316 306 303
260 259 259 260 260 262 263 264 263 262 262 262 264 265 267 266 257 235 223 254 263 264 256 253 258 264 269 269 266 264 262 261 259 258 259 259 258 256 254 252 250 252 255 256 260 263 262 262 262 264 267 269 272 276 277 275 271 269 267 267 273 280 285 283 276 276 272 266 279 286 272 237 231 262 276 280 292 303 304 305 314 313 306 322 329 324 314 307
262 261 261 260 260 261 262 264 265 264 261 259 260 261 258 255 242 225 231 254 263 262 252 251 257 261 265 265 262 260 257 256 256 256 257 256 254 253 251 251 251 250 254 258 261 264 263 264 264 265 267 267 269 270 270 267 262 260 258 258 264 289 311 285 255 254 235 257 275 277 278 242 246 267 278 281 289 296 300 309 312 305 307 322 327 325 319 312
263 263 263 262 263 262 262 263 264 264 262 257 256 255 249 244 236 230 235 242 244 250 252 253 257 257 255 255 256 258 258 259 261 259 257 253 251 252 250 250 249 247 252 259 262 264 268 268 265 264 265 266 266 265 265 264 261 257 253 248 236 163 34 274 253 284 262 267 270 264 276 264 265 279 284 280 283 295 304 307 304 298 312 322 323 322 319 315
262 262 262 262 262 262 262 263 262 263 262 256 252 249 239 233 235 238 242 245 248 255 258 259 260 257 254 252 254 258 259 262 263 259 255 252 251 251 249 246 246 246 248 253 257 261 265 268 267 265 267 269 270 267 264 261 259 259 255 244 231 215 205 226 249 249 273 294 282 236 242 262 272 285 286 282 289 297 303 301 293 302 313 321 322 319 317 317
262 262 261 260 259 259 260 260 260 259 256 252 249 242 233 232 236 241 246 250 252 255 257 258 259 257 255 255 256 257 258 258 259 256 254 253 253 255 253 250 248 247 245 244 251 258 257 264 270 270 269 272 272 268 260 250 247 251 244 232 230 231 229 235 256 260 282 313 285 221 243 267 276 282 281 283 291 297 301 293 294 307 314 319 320 316 316 317
263 263 262 261 258 257 256 256 256 254 251 248 242 238 241 244 245 247 251 254 254 255 256 256 256 254 254 256 255 255 254 254 256 254 253 254 256 256 255 254 253 250 247 245 247 252 258 268 275 274 271 271 267 262 254 241 237 239 232 229 234 236 233 235 256 271 283 306 276 254 263 276 283 285 283 286 294 297 297 295 300 309 313 317 318 314 314 315
265 264 263 262 261 257 253 253 252 249 246 242 238 244 250 252 252 253 254 255 254 256 256 254 254 253 253 255 255 255 252 251 252 251 251 254 257 257 256 257 257 254 255 253 248 249 255 265 273 274 274 272 265 257 248 239 234 229 230 237 239 232 230 231 241 292 284 257 276 268 272 280 281 281 285 289 295 297 297 298 303 309 314 316 314 313 314 313
265 264 262 262 262 258 252 250 248 247 243 238 241 250 254 255 256 257 256 256 258 259 255 253 255 256 256 256 257 257 250 246 247 248 250 251 254 259 259 258 261 261 260 253 246 246 249 258 270 272 274 275 266 250 238 235 230 229 236 239 232 221 219 220 206 254 259 159 277 275 279 279 271 267 280 289 295 297 297 297 302 309 314 313 312 313 313 311
264 263 262 261 260 256 250 247 247 245 239 238 245 251 254 256 258 259 259 260 260 257 255 255 256 255 256 256 256 256 251 249 249 248 248 250 253 260 261 260 263 265 261 249 241 244 244 246 262 269 271 271 260 243 238 236 227 225 230 230 230 233 228 221 211 214 224 163 263 283 290 279 272 272 282 290 294 294 293 295 301 309 311 309 312 313 312 312
263 263 262 261 257 252 249 246 245 243 239 243 249 253 255 258 259 261 262 261 258 255 254 256 255 252 254 257 256 256 252 250 251 247 247 251 253 259 263 263 263 264 261 248 239 240 238 236 247 259 262 257 251 253 254 251 241 231 230 228 231 233 227 232 236 232 228 186 248 280 279 275 277 280 286 289 291 291 293 295 301 308 308 308 311 311 311 313
260 260 261 261 256 253 248 242 242 243 244 248 252 252 255 258 261 263 262 259 257 255 254 255 254 253 256 257 255 255 252 249 251 248 248 251 253 257 263 266 265 263 258 246 239 238 234 232 239 247 252 254 257 261 260 255 249 245 245 245 245 242 232 230 246 241 236 225 229 207 247 273 277 282 287 289 290 291 293 295 301 306 306 307 310 310 311 312
258 259 261 261 258 256 251 246 248 248 247 250 253 253 255 259 260 261 261 259 257 255 254 254 255 255 255 255 254 255 253 251 252 250 249 253 256 260 265 267 264 261 256 250 249 247 239 236 238 243 251 258 261 261 257 252 247 244 248 249 251 249 238 229 231 241 239 231 235 232 232 272 279 283 285 286 289 291 293 294 301 304 304 306 308 308 310 311
257 259 261 260 260 258 251 249 250 247 248 253 255 255 256 258 259 261 261 258 256 254 253 254 256 254 252 253 253 254 253 253 254 253 254 258 262 265 266 264 260 258 254 249 248 246 236 232 237 245 253 256 258 260 258 255 245 239 244 245 243 248 247 244 241 243 245 234 226 177 205 267 277 283 282 285 289 291 292 295 299 302 302 304 306 306 309 310
260 261 261 259 258 254 249 249 250 249 252 256 256 256 256 257 259 260 260 259 258 258 256 255 256 253 253 254 255 255 255 253 255 257 258 261 265 267 264 259 257 256 254 253 253 248 238 233 235 243 257 259 258 259 254 247 243 243 249 248 246 250 252 250 246 241 249 246 227 167 234 261 272 280 281 284 288 288 290 294 297 300 301 302 304 305 306 307
258 257 257 256 254 250 249 253 254 254 255 256 256 258 258 257 259 261 262 262 260 257 255 253 253 254 256 257 256 256 255 253 255 260 262 263 264 264 262 259 258 257 257 258 257 253 250 245 240 234 234 245 250 251 248 247 247 246 250 252 252 253 250 248 247 236 236 245 231 218 245 260 272 280 280 281 285 287 290 294 295 298 300 301 302 304 304 305
252 249 249 250 248 247 249 252 251 250 252 252 253 254 255 256 259 260 260 260 258 255 252 253 255 255 255 254 253 255 255 255 256 258 261 262 260 261 263 262 260 258 257 257 255 252 251 249 247 242 240 244 252 258 260 259 255 253 257 261 259 258 254 250 246 237 238 242 233 239 250 260 272 279 281 282 284 287 290 293 295 296 298 299 301 303 303 303
250 250 250 248 244 244 248 250 247 246 248 248 247 251 254 255 257 258 258 258 258 256 255 256 256 253 252 252 252 253 255 256 256 257 260 260 259 261 263 261 261 260 258 256 253 249 244 245 249 248 246 251 257 262 262 261 262 262 264 267 263 261 257 247 243 250 251 242 238 252 256 259 268 277 282 284 285 287 290 294 295 294 296 298 300 301 301 302
251 255 255 252 248 246 250 253 252 251 250 248 247 249 251 252 254 255 256 257 257 256 255 255 255 255 256 256 252 251 254 255 254 256 258 258 260 261 259 259 260 259 259 257 252 247 241 243 250 250 249 254 259 260 258 257 261 263 263 266 264 261 256 249 251 259 255 241 248 262 263 261 267 275 280 283 285 287 290 293 293 293 296 298 299 299 300 301
254 255 254 251 249 251 257 260 260 257 256 254 250 249 250 253 255 255 256 256 256 257 257 256 260 262 261 258 250 246 250 253 255 259 260 260 261 260 257 258 260 261 264 259 253 249 242 243 251 253 251 256 260 259 256 254 257 259 260 264 263 259 259 259 259 262 257 250 257 265 266 266 271 276 278 282 287 287 288 292 293 294 297 298 299 299 299 298
257 258 258 255 252 254 257 257 255 253 254 253 250 251 254 255 256 257 256 255 255 257 257 258 262 264 263 260 253 249 256 261 261 263 264 263 262 261 259 261 265 271 272 263 256 251 244 246 255 254 251 257 261 259 255 253 254 256 259 262 261 257 259 261 260 260 256 254 260 264 264 267 276 281 281 283 288 289 290 294 295 297 299 299 299 298 295 291
258 261 261 256 253 254 254 252 251 249 248 247 248 254 255 255 259 260 256 256 258 258 259 261 264 266 265 261 256 258 265 267 265 267 268 264 264 266 266 268 271 273 271 266 262 255 246 246 252 250 247 254 259 258 255 253 255 256 257 259 258 254 254 257 260 259 256 256 260 261 261 268 279 286 286 287 290 291 293 297 299 301 300 298 296 293 288 285
255 256 255 251 250 252 252 251 248 244 244 248 253 258 259 261 266 264 256 257 262 262 261 262 264 266 263 260 263 268 272 270 268 270 269 265 264 265 266 267 268 267 264 264 264 259 250 248 249 247 243 250 256 257 254 251 251 251 254 257 258 256 256 257 260 262 261 259 257 258 265 275 283 285 286 290 294 294 296 300 300 299 297 295 291 288 285 284
Height
3194 3194 3194 3194 3194 3193 3193 3193 3192 3192 3191 3191 3190 3190 3189 3188 3188 3187 3186 3186 3185 3184 3183 3183 3182 3181 3180 3179 3178 3177 3176 3176 3175 3175 3174 3173 3172 3172 3171 3170 3169 3168 3167 3167 3166 3165 3163 3162 3161 3161 3160 3160 3159 3159 3158 3158 3158 3157 3157 3157 3156 3156 3155 3155 3155 3154 3154 3154 3155 3155 3155 3154 3154 3153 3153 3152 3152 3152 3151 3151 3151 3150 3150 3150 3150 3149 3149 3148
3194 3194 3194 3194 3193 3193 3193 3192 3192 3191 3191 3190 3190 3189 3189 3188 3187 3187 3186 3186 3185 3184 3184 3183 3182 3181 3180 3179 3178 3177 3177 3176 3175 3175 3174 3173 3172 3171 3171 3170 3169 3168 3167 3166 3165 3164 3163 3162 3161 3160 3160 3159 3158 3158 3158 3158 3157 3157 3156 3156 3156 3155 3155 3155 3154 3154 3153 3154 3154 3154 3154 3153 3153 3152 3151 3151 3150 3150 3149 3149 3149 3148 3148 3148 3148 3147 3147 3147
3193 3193 3193 3193 3193 3193 3192 3192 3192 3191 3190 3190 3189 3189 3188 3188 3187 3186 3186 3185 3185 3184 3183 3183 3182 3181 3180 3179 3178 3178 3177 3176 3175 3175 3174 3173 3172 3171 3170 3169 3169 3168 3167 3166 3165 3164 3163 3162 3161 3160 3159 3159 3158 3158 3157 3157 3157 3156 3156 3155 3155 3154 3154 3154 3154 3153 3153 3153 3153 3153 3153 3152 3152 3151 3150 3150 3149 3148 3147 3147 3147 3146 3146 3145 3145 3145 3145 3145
3193 3193 3193 3193 3192 3192 3192 3191 3191 3190 3190 3189 3189 3188 3187 3187 3186 3186 3185 3184 3184 3184 3183 3182 3182 3181 3180 3179 3178 3177 3177 3176 3175 3174 3173 3173 3172 3171 3170 3169 3168 3168 3167 3166 3165 3164 3163 3162 3161 3160 3159 3158 3158 3157 3157 3156 3156 3155 3155 3154 3154 3154 3154 3153 3153 3153 3152 3152 3152 3152 3152 3151 3150 3149 3148 3148 3147 3146 3146 3145 3145 3144 3144 3144 3143 3143 3143 3142
3192 3192 3192 3192 3191 3191 3191 3191 3190 3190 3189 3189 3188 3187 3187 3186 3186 3185 3184 3184 3183 3183 3182 3182 3181 3180 3179 3179 3178 3177 3176 3175 3174 3174 3173 3172 3171 3171 3170 3169 3168 3167 3167 3166 3165 3164 3162 3161 3161 3160 3159 3158 3158 3157 3156 3156 3155 3155 3154 3153 3153 3153 3152 3152 3152 3152 3151 3151 3151 3150 3150 3149 3149 3147 3147 3146 3145 3144 3145 3144 3143 3143 3142 3142 3141 3141 3140 3140
3191 3191 3191 3191 3191 3190 3190 3190 3189 3189 3188 3188 3187 3187 3186 3186 3185 3184 3183 3183 3182 3182 3181 3181 3180 3179 3179 3178 3177 3176 3176 3174 3174 3173 3172 3172 3171 3170 3169 3169 3168 3167 3167 3166 3165 3164 3162 3161 3160 3159 3159 3158 3157 3157 3156 3156 3155 3154 3154 3153 3152 3152 3151 3151 3151 3151 3151 3150 3149 3149 3148 3148 3147 3146 3145 3144 3143 3143 3143 3142 3141 3141 3140 3140 3139 3139 3138 3138
3189 3190 3190 3190 3189 3189 3189 3189 3188 3188 3187 3187 3186 3186 3185 3185 3184 3183 3182 3182 3181 3181 3180 3180 3179 3179 3178 3177 3176 3176 3175 3174 3173 3173 3172 3171 3170 3170 3169 3168 3168 3167 3166 3165 3165 3163 3162 3161 3160 3159 3158 3158 3157 3156 3156 3155 3155 3154 3154 3153 3152 3151 3151 3150 3150 3150 3149 3149 3148 3147 3146 3146 3145 3144 3142 3142 3142 3142 3141 3140 3139 3139 3138 3138 3137 3137 3136 3136
3188 3188 3188 3188 3188 3188 3188 3188 3187 3187 3186 3186 3185 3185 3184 3183 3183 3182 3181 3181 3180 3180 3179 3179 3178 3177 3177 3176 3175 3175 3174 3173 3172 3172 3171 3171 3170 3169 3169 3168 3167 3166 3165 3165 3164 3163 3162 3161 3160 3159 3158 3157 3156 3156 3155 3154 3154 3153 3153 3152 3151 3151 3150 3149 3149 3148 3148 3147 3146 3145 3144 3143 3143 3141 3140 3139 3140 3139 3139 3139 3138 3137 3136 3135 3135 3134 3134 3133
3187 3187 3187 3187 3187 3187 3186 3186 3186 3185 3185 3184 3184 3183 3183 3182 3182 3181 3180 3179 3179 3178 3178 3177 3177 3176 3175 3175 3174 3174 3173 3172 3171 3171 3170 3170 3169 3169 3168 3167 3167 3166 3165 3164 3163 3163 3162 3161 3160 3159 3158 3157 3156 3155 3154 3154 3153 3152 3152 3151 3150 3149 3149 3148 3147 3147 3147 3146 3145 3143 3142 3141 3141 3139 3137 3138 3138 3137 3137 3136 3135 3134 3133 3133 3132 3131 3131 3131
3185 3185 3185 3185 3185 3185 3185 3185 3184 3184 3183 3183 3182 3182 3181 3181 3180 3180 3179 3178 3178 3177 3177 3176 3175 3175 3174 3174 3173 3172 3172 3171 3170 3170 3169 3169 3168 3168 3167 3167 3166 3165 3164 3163 3162 3162 3161 3160 3159 3158 3157 3156 3155 3154 3154 3153 3152 3151 3151 3150 3149 3148 3147 3146 3146 3146 3145 3144 3144 3142 3140 3139 3139 3137 3136 3136 3135 3134 3134 3133 3132 3131 3130 3130 3129 3128 3128 3128
3183 3183 3183 3183 3184 3183 3183 3183 3183 3183 3182 3181 3181 3180 3180 3179 3179 3179 3178 3177 3177 3176 3175 3175 3174 3174 3173 3172 3172 3171 3171 3170 3169 3169 3168 3167 3167 3167 3166 3165 3165 3164 3163 3162 3161 3161 3160 3159 3158 3157 3156 3155 3154 3154 3153 3152 3151 3150 3149 3149 3148 3146 3146 3145 3144 3144 3143 3143 3142 3140 3138 3136 3136 3134 3134 3134 3133 3132 3131 3130 3129 3128 3127 3126 3125 3125 3124 3124
3181 3181 3182 3182 3182 3182 3182 3182 3181 3181 3180 3180 3179 3178 3178 3178 3177 3177 3176 3176 3175 3175 3174 3173 3173 3172 3172 3171 3170 3170 3169 3169 3168 3167 3167 3166 3166 3165 3165 3164 3164 3163 3162 3161 3160 3160 3159 3158 3157 3156 3155 3154 3154 3153 3152 3151 3150 3149 3148 3147 3146 3145 3144 3143 3143 3142 3141 3141 3140 3139 3135 3132 3134 3133 3132 3132 3130 3130 3128 3127 3126 3124 3123 3122 3121 3121 3120 3120
3179 3179 3179 3180 3180 3180 3180 3180 3180 3179 3179 3178 3177 3177 3176 3176 3175 3175 3175 3174 3174 3173 3172 3172 3171 3170 3170 3170 3169 3168 3168 3167 3167 3166 3165 3165 3164 3164 3163 3163 3162 3161 3160 3160 3159 3158 3157 3156 3156 3155 3154 3153 3153 3152 3151 3150 3149 3148 3147 3146 3145 3144 3143 3142 3141 3140 3140 3139 3138 3138 3132 3127 3131 3132 3130 3129 3128 3127 3125 3124 3123 3121 3120 3119 3118 3117 3117 3117
3177 3177 3177 3177 3178 3178 3178 3178 3178 3177 3177 3176 3175 3175 3174 3174 3173 3173 3173 3172 3172 3171 3171 3170 3169 3168 3168 3168 3168 3167 3166 3166 3165 3165 3164 3164 3163 3162 3162 3161 3160 3159 3159 3158 3158 3157 3156 3155 3154 3153 3153 3152 3151 3150 3149 3148 3148 3147 3145 3144 3143 3142 3141 3141 3140 3138 3137 3136 3135 3137 3130 3125 3129 3129 3127 3126 3125 3124 3122 3120 3119 3118 3116 3115 3114 3113 3113 3113
3174 3174 3175 3175 3175 3175 3175 3175 3175 3175 3175 3174 3174 3173 3172 3172 3171 3171 3170 3170 3169 3169 3168 3168 3167 3166 3166 3166 3166 3165 3165 3164 3164 3163 3163 3162 3161 3161 3160 3159 3158 3157 3157 3156 3155 3155 3155 3154 3153 3152 3151 3150 3150 3148 3148 3147 3146 3145 3144 3143 3142 3140 3139 3139 3138 3137 3136 3134 3133 3133 3128 3123 3126 3126 3124 3123 3122 3120 3118 3116 3115 3113 3112 3111 3110 3110 3109 3109
3171 3172 3172 3172 3173 3173 3173 3173 3173 3173 3173 3172 3172 3171 3170 3169 3169 3169 3168 3168 3167 3167 3166 3166 3165 3164 3163 3164 3164 3163 3163 3162 3162 3161 3161 3160 3159 3159 3158 3157 3156 3155 3155 3154 3153 3153 3153 3152 3151 3150 3149 3149 3148 3147 3146 3145 3144 3144 3142 3141 3139 3138 3137 3136 3136 3135 3134 3132 3129 3129 3125 3121 3122 3123 3122 3120 3119 3117 3114 3112 3111 3109 3108 3107 3105 3105 3105 3105
3169 3169 3169 3170 3170 3170 3170 3170 3170 3170 3170 3170 3169 3169 3168 3167 3167 3166 3166 3165 3165 3164 3164 3163 3163 3162 3161 3161 3161 3161 3160 3160 3160 3159 3159 3158 3157 3156 3156 3155 3154 3153 3152 3151 3151 3151 3150 3150 3149 3149 3148 3147 3146 3145 3144 3143 3142 3141 3140 3139 3137 3136 3135 3134 3133 3133 3131 3130 3127 3124 3120 3118 3119 3119 3118 3117 3116 3114 3111 3108 3107 3106 3104 3102 3101 3100 3100 3100
3166 3166 3167 3167 3167 3167 3167 3167 3167 3167 3167 3167 3166 3166 3166 3165 3164 3164 3163 3163 3162 3162 3161 3161 3160 3159 3158 3159 3159 3159 3158 3158 3157 3157 3156 3156 3155 3154 3153 3152 3151 3150 3150 3149 3148 3148 3148 3147 3147 3147 3146 3145 3145 3144 3143 3141 3140 3139 3138 3137 3135 3134 3132 3131 3131 3130 3129 3127 3124 3121 3116 3115 3116 3116 3114 3113 3112 3110 3107 3105 3104 3102 3100 3098 3097 3096 3096 3095
3163 3164 3164 3164 3164 3164 3164 3164 3164 3164 3164 3165 3164 3163 3163 3162 3161 3161 3160 3160 3160 3159 3158 3158 3157 3156 3156 3156 3156 3156 3156 3155 3155 3154 3154 3153 3152 3151 3150 3149 3149 3148 3147 3146 3146 3146 3145 3145 3144 3144 3144 3144 3143 3142 3141 3140 3139 3137 3136 3135 3133 3131 3129 3128 3128 3127 3125 3123 3121 3118 3114 3112 3112 3113 3112 3110 3108 3106 3103 3102 3100 3098 3096 3094 3093 3092 3092 3091
3161 3161 3161 3161 3161 3161 3161 3161 3161 3161 3162 3162 3161 3161 3160 3159 3158 3158 3157 3157 3156 3156 3156 3155 3154 3154 3153 3153 3153 3153 3153 3152 3151 3151 3151 3150 3149 3148 3147 3146 3145 3145 3144 3144 3143 3143 3143 3142 3140 3142 3142 3141 3140 3140 3139 3138 3137 3135 3134 3132 3130 3128 3126 3126 3125 3123 3121 3117 3115 3114 3110 3108 3107 3108 3110 3108 3105 3103 3100 3099 3097 3095 3093 3091 3090 3089 3088 3088
3157 3158 3158 3158 3159 3159 3159 3159 3159 3159 3158 3158 3158 3158 3157 3156 3155 3154 3153 3153 3153 3152 3152 3152 3151 3150 3150 3150 3150 3150 3149 3149 3148 3148 3147 3147 3146 3145 3144 3143 3142 3141 3141 3141 3141 3140 3140 3137 3137 3140 3140 3139 3138 3137 3136 3135 3134 3133 3131 3130 3128 3126 3124 3124 3123 3119 3118 3113 3109 3110 3105 3101 3102 3103 3105 3104 3101 3099 3098 3096 3093 3091 3089 3088 3087 3086 3085 3085
3154 3155 3155 3155 3156 3156 3156 3156 3156 3156 3156 3155 3155 3154 3154 3153 3152 3151 3150 3148 3149 3149 3148 3148 3148 3147 3147 3147 3147 3147 3146 3145 3145 3145 3144 3143 3142 3141 3140 3139 3139 3138 3139 3138 3138 3138 3137 3134 3136 3138 3137 3136 3136 3135 3134 3133 3132 3131 3129 3127 3125 3124 3121 3121 3120 3117 3115 3110 3106 3105 3098 3092 3096 3098 3099 3100 3098 3097 3095 3093 3091 3088 3086 3085 3084 3084 3082 3082
3151 3151 3152 3152 3153 3153 3153 3153 3153 3153 3153 3152 3152 3151 3151 3150 3149 3148 3146 3143 3143 3145 3145 3144 3144 3144 3144 3144 3143 3143 3142 3141 3141 3140 3141 3139 3138 3138 3136 3136 3136 3135 3136 3135 3135 3135 3133 3132 3134 3135 3134 3133 3133 3132 3131 3130 3130 3128 3127 3125 3122 3122 3120 3117 3116 3115 3113 3109 3103 3101 3091 3083 3088 3092 3093 3095 3093 3094 3093 3089 3088 3084 3083 3082 3081 3081 3079 3078
3147 3148 3148 3149 3150 3149 3149 3150 3150 3150 3150 3149 3149 3149 3148 3147 3146 3145 3143 3139 3136 3138 3141 3140 3140 3140 3140 3141 3140 3139 3138 3138 3137 3137 3137 3136 3135 3134 3133 3134 3133 3133 3133 3132 3132 3132 3131 3131 3131 3131 3131 3130 3130 3129 3128 3127 3127 3126 3124 3122 3119 3120 3119 3115 3113 3111 3110 3108 3103 3100 3087 3072 3077 3084 3087 3090 3089 3089 3090 3087 3084 3081 3079 3079 3078 3077 3076 3075
3143 3144 3145 3146 3146 3145 3146 3146 3146 3146 3146 3146 3146 3146 3145 3144 3143 3142 3140 3135 3129 3132 3135 3135 3136 3136 3137 3137 3136 3135 3134 3134 3134 3133 3133 3132 3132 3131 3131 3131 3130 3130 3130 3130 3129 3128 3128 3129 3127 3128 3128 3127 3127 3126 3126 3125 3123 3122 3121 3119 3117 3117 3116 3113 3111 3108 3105 3104 3102 3104 3092 3069 3068 3078 3081 3085 3084 3084 3086 3083 3080 3079 3076 3075 3074 3074 3073 3072
3139 3140 3141 3142 3142 3142 3142 3142 3143 3143 3143 3143 3143 3143 3142 3141 3140 3139 3137 3131 3123 3126 3130 3130 3131 3131 3132 3132 3132 3132 3131 3130 3130 3130 3130 3130 3130 3129 3128 3128 3128 3127 3127 3127 3127 3125 3125 3125 3125 3125 3124 3124 3124 3122 3123 3122 3120 3118 3117 3117 3116 3114 3112 3111 3110 3107 3103 3100 3098 3106 3102 3075 3062 3069 3075 3080 3080 3079 3082 3080 3077 3076 3074 3072 3072 3071 3070 3069
3135 3136 3137 3138 3138 3139 3138 3138 3140 3140 3140 3140 3139 3140 3139 3138 3138 3136 3136 3129 3119 3120 3125 3125 3126 3126 3127 3128 3128 3129 3127 3127 3128 3127 3128 3128 3126 3126 3125 3125 3125 3125 3125 3125 3123 3121 3121 3121 3122 3122 3121 3121 3120 3119 3120 3120 3117 3114 3113 3114 3113 3111 3110 3107 3106 3105 3101 3097 3094 3099 3103 3084 3059 3058 3068 3074 3075 3075 3077 3077 3074 3073 3071 3069 3069 3067 3066 3065
3130 3132 3133 3133 3134 3134 3134 3135 3135 3136 3137 3136 3136 3137 3135 3135 3135 3134 3135 3129 3116 3116 3121 3121 3122 3122 3123 3125 3124 3125 3124 3124 3125 3124 3125 3125 3123 3123 3122 3122 3123 3121 3122 3121 3118 3118 3119 3118 3118 3118 3118 3116 3116 3116 3117 3116 3114 3111 3110 3111 3110 3109 3107 3105 3104 3103 3099 3095 3089 3089 3097 3088 3059 3051 3063 3067 3068 3071 3072 3073 3071 3069 3068 3065 3065 3064 3062 3061
3125 3127 3128 3129 3129 3130 3130 3130 3131 3132 3133 3133 3133 3133 3132 3132 3132 3131 3133 3125 3113 3113 3117 3118 3119 3119 3120 3121 3121 3121 3122 3122 3121 3120 3121 3121 3120 3120 3119 3119 3120 3118 3118 3116 3114 3115 3115 3115 3115 3115 3114 3113 3113 3113 3112 3112 3111 3108 3108 3107 3107 3106 3104 3103 3101 3100 3100 3092 3083 3082 3090 3086 3057 3045 3058 3062 3062 3066 3067 3068 3068 3066 3065 3062 3061 3060 3058 3057
3120 3122 3123 3123 3124 3125 3125 3126 3127 3128 3128 3129 3129 3129 3129 3129 3128 3129 3126 3117 3111 3112 3114 3114 3116 3116 3117 3117 3117 3118 3118 3118 3118 3117 3117 3117 3116 3116 3115 3116 3116 3115 3114 3113 3111 3112 3111 3111 3111 3110 3110 3110 3110 3109 3108 3109 3107 3105 3105 3104 3105 3104 3101 3101 3097 3098 3099 3086 3077 3078 3082 3083 3062 3042 3048 3055 3056 3061 3062 3062 3063 3062 3062 3060 3058 3056 3054 3053
3115 3116 3117 3118 3119 3120 3120 3121 3122 3123 3124 3124 3125 3125 3125 3124 3124 3122 3114 3108 3109 3109 3109 3111 3112 3112 3113 3113 3113 3113 3113 3113 3113 3114 3113 3113 3112 3111 3111 3112 3113 3112 3111 3109 3108 3108 3107 3106 3106 3106 3107 3107 3106 3105 3105 3105 3103 3102 3103 3102 3103 3102 3099 3097 3094 3097 3096 3080 3073 3075 3076 3079 3063 3040 3043 3049 3050 3056 3058 3057 3058 3057 3057 3056 3054 3053 3051 3050
3111 3111 3111 3113 3114 3115 3116 3117 3118 3119 3119 3119 3121 3120 3121 3120 3114 3107 3104 3107 3108 3104 3104 3107 3107 3108 3110 3108 3108 3109 3109 3109 3109 3110 3109 3108 3107 3106 3107 3108 3109 3109 3106 3104 3105 3104 3102 3101 3103 3103 3103 3103 3102 3102 3101 3100 3099 3099 3099 3101 3102 3102 3100 3096 3092 3093 3089 3077 3072 3073 3074 3069 3049 3034 3040 3045 3046 3051 3052 3052 3052 3052 3052 3051 3050 3048 3046 3046
3105 3106 3107 3108 3109 3110 3111 3112 3114 3114 3114 3116 3116 3115 3117 3113 3098 3093 3100 3105 3103 3099 3101 3104 3104 3105 3105 3103 3103 3105 3105 3105 3105 3106 3105 3103 3102 3101 3103 3104 3105 3106 3103 3101 3102 3101 3098 3095 3098 3099 3098 3098 3097 3097 3096 3094 3095 3095 3095 3098 3099 3101 3102 3095 3091 3088 3080 3073 3070 3073 3073 3057 3035 3029 3034 3037 3041 3046 3046 3047 3047 3047 3047 3046 3044 3043 3041 3041
3100 3100 3101 3102 3104 3105 3106 3107 3109 3109 3110 3111 3111 3111 3111 3099 3086 3088 3095 3096 3097 3098 3099 3100 3101 3101 3100 3099 3099 3101 3102 3101 3101 3101 3100 3098 3097 3096 3097 3098 3099 3101 3100 3100 3099 3099 3096 3089 3090 3095 3094 3092 3092 3092 3092 3091 3091 3091 3092 3094 3092 3094 3095 3089 3086 3082 3075 3069 3068 3071 3067 3045 3029 3026 3026 3029 3036 3039 3041 3042 3042 3042 3041 3040 3039 3038 3037 3035
3094 3094 3095 3096 3098 3100 3101 3102 3103 3104 3105 3104 3106 3105 3095 3081 3079 3085 3088 3090 3095 3096 3095 3096 3097 3096 3095 3095 3095 3097 3098 3097 3096 3096 3095 3093 3091 3090 3090 3092 3095 3097 3097 3098 3096 3095 3092 3084 3084 3089 3088 3088 3089 3088 3088 3088 3088 3088 3088 3089 3086 3086 3087 3085 3083 3078 3076 3073 3064 3060 3051 3031 3025 3023 3020 3026 3031 3032 3036 3036 3036 3038 3035 3035 3034 3033 3032 3030
3089 3089 3089 3089 3091 3095 3096 3096 3097 3098 3098 3099 3100 3091 3075 3070 3077 3081 3083 3087 3091 3091 3092 3093 3092 3091 3090 3089 3090 3091 3094 3093 3091 3091 3090 3087 3086 3083 3083 3086 3090 3091 3092 3092 3092 3092 3088 3081 3081 3083 3083 3084 3085 3084 3084 3084 3084 3084 3082 3080 3080 3081 3083 3083 3081 3077 3079 3076 3058 3047 3038 3023 3020 3017 3011 3021 3025 3026 3030 3029 3030 3032 3029 3030 3029 3027 3027 3025
3083 3083 3083 3082 3085 3089 3090 3090 3091 3091 3091 3093 3088 3074 3064 3067 3073 3076 3080 3083 3085 3088 3090 3088 3085 3085 3084 3082 3083 3085 3089 3089 3086 3086 3085 3083 3080 3075 3077 3081 3083 3085 3086 3087 3088 3088 3086 3080 3078 3078 3078 3080 3080 3079 3080 3080 3080 3079 3075 3075 3077 3080 3081 3081 3081 3077 3078 3077 3055 3040 3034 3021 3016 3012 3005 3013 3019 3018 3022 3023 3023 3025 3024 3024 3022 3021 3021 3019
3077 3077 3076 3077 3080 3083 3084 3084 3084 3084 3086 3084 3075 3064 3061 3064 3067 3072 3076 3078 3081 3085 3084 3081 3079 3079 3078 3077 3077 3080 3084 3083 3080 3080 3080 3078 3073 3069 3072 3077 3077 3079 3081 3083 3084 3084 3084 3081 3077 3075 3075 3074 3074 3075 3075 3075 3075 3073 3071 3073 3074 3075 3076 3076 3078 3074 3073 3074 3056 3039 3034 3015 3003 3006 3005 3010 3015 3013 3015 3016 3016 3019 3018 3017 3016 3016 3015 3013
3072 3069 3069 3073 3076 3076 3078 3078 3078 3080 3079 3073 3064 3059 3058 3058 3061 3067 3071 3074 3077 3078 3075 3073 3074 3074 3072 3071 3073 3075 3076 3075 3075 3075 3073 3071 3067 3064 3068 3072 3073 3075 3076 3078 3078 3078 3080 3079 3076 3073 3071 3069 3068 3068 3067 3066 3068 3068 3068 3070 3069 3070 3071 3069 3071 3068 3064 3067 3055 3043 3035 3003 2986 3000 3006 3006 3010 3009 3010 3011 3011 3014 3013 3011 3011 3009 3009 3008
3066 3063 3063 3067 3069 3069 3072 3073 3072 3072 3067 3060 3057 3055 3053 3054 3058 3062 3066 3069 3070 3069 3068 3067 3069 3069 3067 3067 3068 3069 3069 3068 3068 3069 3068 3066 3062 3060 3064 3067 3069 3071 3072 3073 3073 3073 3075 3075 3072 3070 3065 3062 3059 3056 3056 3056 3060 3063 3063 3065 3064 3064 3067 3065 3064 3061 3059 3062 3054 3050 3038 2995 2976 2995 3002 3001 3004 3004 3005 3006 3005 3008 3007 3005 3005 3003 3002 3002
3059 3056 3056 3060 3062 3063 3066 3065 3063 3062 3057 3052 3052 3050 3049 3052 3054 3056 3059 3062 3062 3062 3063 3062 3063 3063 3062 3062 3062 3062 3064 3063 3062 3063 3060 3058 3058 3057 3059 3062 3064 3066 3067 3068 3068 3067 3068 3068 3067 3064 3057 3052 3049 3048 3050 3052 3055 3058 3058 3059 3058 3059 3063 3062 3059 3054 3053 3053 3046 3047 3038 2994 2973 2990 2996 2995 2999 2998 2999 3001 3000 3002 3000 2998 2999 2997 2996 2995
3051 3049 3050 3055 3055 3057 3059 3056 3056 3055 3048 3045 3046 3047 3048 3049 3048 3050 3052 3055 3055 3056 3057 3057 3056 3056 3056 3056 3056 3057 3059 3057 3056 3055 3052 3052 3052 3053 3055 3057 3058 3060 3062 3063 3062 3063 3064 3064 3062 3057 3052 3048 3045 3045 3047 3049 3052 3055 3054 3053 3053 3055 3055 3053 3050 3044 3044 3045 3038 3043 3039 2995 2970 2986 2992 2990 2994 2994 2994 2996 2995 2995 2994 2993 2993 2991 2990 2989
3042 3043 3046 3048 3048 3050 3051 3049 3049 3045 3039 3040 3043 3044 3045 3044 3043 3044 3046 3047 3048 3049 3050 3049 3048 3049 3049 3050 3052 3053 3053 3051 3049 3047 3047 3047 3046 3047 3051 3052 3052 3055 3057 3056 3057 3059 3060 3059 3056 3052 3048 3045 3041 3041 3043 3044 3048 3049 3046 3046 3047 3046 3045 3043 3041 3038 3039 3037 3032 3043 3038 2992 2967 2982 2988 2987 2992 2990 2988 2991 2991 2989 2988 2988 2987 2986 2985 2983
3036 3037 3039 3039 3040 3040 3039 3037 3037 3035 3035 3038 3039 3039 3040 3039 3038 3038 3039 3040 3042 3042 3042 3041 3041 3043 3045 3047 3048 3047 3047 3046 3042 3041 3043 3042 3039 3041 3044 3045 3047 3049 3049 3049 3051 3054 3053 3052 3052 3049 3046 3042 3037 3036 3037 3038 3040 3039 3036 3038 3039 3039 3040 3039 3036 3036 3034 3026 3027 3039 3022 2980 2967 2982 2984 2984 2988 2986 2985 2987 2986 2984 2983 2983 2982 2981 2979 2977
3029 3028 3028 3029 3029 3028 3026 3028 3030 3030 3031 3033 3031 3032 3035 3033 3032 3033 3033 3034 3035 3035 3034 3035 3037 3039 3041 3043 3042 3040 3041 3041 3038 3038 3037 3034 3032 3033 3036 3039 3041 3042 3043 3044 3046 3047 3046 3045 3045 3042 3040 3035 3028 3026 3028 3029 3032 3031 3029 3031 3032 3032 3035 3032 3029 3030 3024 3017 3023 3023 2995 2970 2975 2982 2980 2983 2984 2980 2981 2982 2980 2979 2978 2977 2977 2975 2973 2972
3020 3017 3017 3018 3018 3016 3017 3021 3022 3021 3022 3024 3024 3025 3026 3025 3025 3028 3028 3026 3026 3027 3028 3030 3032 3034 3035 3036 3035 3034 3034 3035 3035 3033 3029 3026 3026 3028 3031 3033 3035 3036 3038 3039 3040 3040 3039 3037 3035 3031 3027 3024 3019 3018 3022 3024 3025 3024 3022 3024 3024 3024 3026 3026 3022 3018 3013 3012 3012 2999 2981 2979 2981 2972 2971 2980 2980 2976 2977 2976 2974 2974 2972 2972 2971 2969 2968 2966
3010 3007 3006 3009 3009 3008 3009 3012 3011 3010 3013 3016 3015 3015 3016 3016 3018 3020 3019 3018 3018 3021 3024 3024 3025 3026 3026 3027 3028 3026 3027 3029 3030 3026 3021 3021 3023 3025 3027 3027 3029 3031 3032 3033 3034 3033 3031 3027 3024 3021 3019 3017 3016 3017 3020 3020 3019 3018 3017 3016 3016 3017 3019 3018 3012 3004 3004 3007 2997 2983 2984 2986 2972 2960 2966 2974 2974 2972 2972 2970 2970 2968 2966 2967 2966 2963 2962 2961
3001 2999 2998 3001 3000 2998 2998 3001 3002 3003 3005 3007 3006 3008 3009 3010 3011 3010 3009 3011 3013 3015 3017 3016 3016 3016 3017 3020 3022 3021 3023 3025 3021 3016 3015 3018 3021 3021 3021 3023 3024 3025 3026 3027 3027 3026 3022 3016 3013 3014 3014 3012 3012 3014 3015 3015 3014 3013 3012 3008 3007 3009 3010 3008 3001 2992 2995 2997 2984 2976 2982 2978 2962 2958 2965 2967 2967 2968 2967 2965 2965 2962 2961 2961 2959 2957 2957 2955
2995 2993 2992 2993 2991 2990 2991 2994 2998 2997 2998 3000 3000 3001 3003 3002 3002 3002 3004 3006 3005 3006 3009 3007 3006 3008 3011 3016 3018 3017 3018 3016 3009 3008 3012 3014 3015 3016 3016 3018 3019 3020 3022 3022 3020 3020 3016 3008 3007 3011 3008 3005 3006 3006 3009 3010 3008 3007 3005 3001 2999 3002 3002 2998 2988 2982 2988 2990 2978 2971 2973 2967 2955 2953 2959 2961 2962 2963 2962 2961 2960 2957 2956 2955 2952 2951 2950 2949
2989 2986 2986 2985 2982 2984 2987 2989 2991 2989 2990 2994 2992 2992 2995 2994 2994 2997 2998 2998 2997 2998 3000 2998 2998 3003 3007 3010 3012 3009 3007 3005 3003 3005 3010 3010 3011 3013 3013 3013 3015 3017 3018 3016 3014 3014 3010 3003 3004 3007 3003 2997 2996 2998 3001 3003 3001 3001 2998 2991 2991 2996 2994 2984 2975 2976 2984 2980 2969 2969 2970 2956 2943 2945 2954 2957 2957 2957 2956 2953 2952 2951 2951 2949 2946 2944 2944 2943
2986 2981 2980 2978 2974 2976 2979 2979 2981 2980 2981 2984 2983 2983 2986 2985 2988 2992 2990 2990 2992 2992 2992 2992 2995 3000 3001 3002 3003 2998 2995 2998 3000 3003 3008 3008 3008 3011 3009 3009 3012 3012 3011 3010 3008 3007 3004 2999 3000 3002 2997 2989 2988 2991 2993 2994 2996 2996 2987 2976 2978 2985 2980 2970 2968 2972 2973 2968 2965 2970 2962 2940 2932 2943 2952 2951 2951 2951 2948 2945 2944 2944 2944 2941 2939 2938 2937 2936
2982 2975 2973 2973 2968 2967 2970 2972 2972 2971 2970 2972 2973 2975 2976 2977 2983 2988 2984 2982 2985 2986 2987 2990 2992 2994 2993 2991 2990 2988 2990 2995 2998 3000 3003 3003 3003 3005 3004 3004 3005 3004 3003 3004 3002 3000 2998 2995 2995 2997 2990 2982 2985 2986 2985 2990 2993 2983 2966 2960 2966 2971 2968 2965 2965 2963 2962 2962 2963 2960 2945 2929 2933 2946 2947 2943 2944 2943 2940 2939 2938 2937 2936 2935 2932 2931 2931 2930